This is the latest recevied weather packets stored in our database for station/object KB1WCR. If no packets are shown the sender has not sent any weather packets the latest 10 day(s).
| Time | Temp. | Humidity | Pressure | Rain* | Wind** | Luminosity | Snow |
|---|---|---|---|---|---|---|---|
| 1777989999 | 20° C | 56% | 1007.3 hPa | 0 mm | - | 167 W/m² | - |
| 1777989697 | 20° C | 56% | 1007.3 hPa | 0 mm | - | 345 W/m² | - |
| 1777989392 | 20.56° C | 55% | 1007.2 hPa | 0 mm | - | 256 W/m² | - |
| 1777989089 | 20.56° C | 56% | 1007.4 hPa | 0 mm | - | 526 W/m² | - |
| 1777988785 | 20° C | 55% | 1007.6 hPa | 0 mm | - | 641 W/m² | - |
| 1777988483 | 19.44° C | 57% | 1007.7 hPa | 0 mm | - | 576 W/m² | - |
| 1777988180 | 18.89° C | 58% | 1008 hPa | 0 mm | - | 557 W/m² | - |
| 1777987875 | 18.33° C | 60% | 1007.9 hPa | 0 mm | - | 538 W/m² | - |
| 1777987572 | 18.33° C | 60% | 1008 hPa | 0 mm | - | 223 W/m² | - |
| 1777987270 | 18.33° C | 62% | 1008.1 hPa | 0 mm | - | 316 W/m² | - |
| 1777986966 | 18.33° C | 61% | 1008.1 hPa | 0 mm | - | 560 W/m² | - |
| 1777986664 | 17.78° C | 61% | 1008.2 hPa | 0 mm | - | 403 W/m² | - |
| 1777986362 | 17.78° C | 62% | 1008.4 hPa | 0 mm | - | 602 W/m² | - |
| 1777986060 | 17.78° C | 62% | 1008.5 hPa | 0 mm | - | 275 W/m² | - |
| 1777985756 | 18.33° C | 62% | 1008.5 hPa | 0 mm | - | 243 W/m² | - |
| 1777985453 | 17.78° C | 63% | 1008.3 hPa | 0 mm | - | 410 W/m² | - |
| 1777985150 | 17.22° C | 62% | 1008 hPa | 0 mm | - | 496 W/m² | - |
| 1777984846 | 17.22° C | 64% | 1007.9 hPa | 0 mm | - | 455 W/m² | - |
| 1777984543 | 16.67° C | 65% | 1007.8 hPa | 0 mm | - | 473 W/m² | - |
| 1777984239 | 16.11° C | 68% | 1007.9 hPa | 0 mm | - | 419 W/m² | - |
| 1777983936 | 16.11° C | 67% | 1007.9 hPa | 0 mm | - | 367 W/m² | - |
| 1777983633 | 16.11° C | 65% | 1007.7 hPa | 0 mm | - | 347 W/m² | - |
| 1777983329 | 15.56° C | 69% | 1007.7 hPa | 0 mm | - | 334 W/m² | - |
| 1777983026 | 15.56° C | 68% | 1007.9 hPa | 0 mm | - | 321 W/m² | - |
| 1777982722 | 15.56° C | 68% | 1008 hPa | 0 mm | - | 295 W/m² | - |
* Rain latest hour (hover to see other rain measurements)
** Current wind speed in m/s (hover to see current wind gust speed)